User: anonymous   Login
Location: Clinton NY
(43.0598°N, 75.3602°W)
Time: 04:47:09
(UTC-04:00)
Language:

Iridium 11 - Orbit

View from above orbital plane
View from above orbital plane
View from above satellite
View from above satellite

Ground track
Ground track

The orbit data is extracted from the following two-line orbital elements,

1 25578U 98074B   15107.24604323  .00000539  00000-0  18534-3 0  9994
2 25578 086.3984 226.6064 0002131 090.8184 317.9029 14.34216869863899
Epoch (UTC): 17 April 2015 05:54:18
Eccentricity: 0.0002131
inclination: 86.3984°
perigee height: 776 km
apogee height: 779 km
right ascension of ascending node: 226.6064°
argument of perigee: 90.8184°
revolutions per day: 14.34216869
mean anomaly at epoch: 317.9029°
orbit number at epoch: 86389

The dashed part of the orbit path shows where the satellite is in the earth's shadow,  

DLR